This demonstration page uses our WeatherBlox Daily Observations layout. Learn more.

Left ArrowRight Arrow

40.92945, -100.16068

Hourly Observations for December 21, 2020

Temp ( °F °C ) Dew Point ( °F °C ) Humidity (%) Winds ( mph kmh ) Pressure ( in mb ) Visibility ( mi km ) Precip ( " mm )
12:15 am 00:15 Clear 35 1.7 28 -2.3 75 75 WNW 10 17 29.98 1015 10 16.0934 0 0
12:35 am 00:35 Clear 35 1.7 28 -2.2 76 76 WNW 10 17 29.98 1015 10 16.0934 0 0
12:55 am 00:55 Clear 35 1.5 28 -2.3 76 76 WNW 10 17 29.99 1016 10 16.0934 0 0
1:15 am 01:15 Clear 34 1.1 28 -2.3 78 78 WNW 7 11 30 1016 10 16.0934 0 0
1:35 am 01:35 Clear 33 0.3 28 -2.4 82 82 W 8 13 30 1016 10 16.0934 0 0
1:55 am 01:55 Clear 33 0.5 28 -2.3 82 82 W 8 13 30 1016 10 16.0934 0 0
2:15 am 02:15 Clear 32 0.1 28 -2.5 83 83 WNW 8 13 30.01 1016 10 16.0934 0 0
2:35 am 02:35 Clear 32 0 27 -2.7 82 82 WNW 7 11 30.03 1017 10 16.0934 0 0
2:55 am 02:55 Clear 32 0 27 -2.8 82 82 WNW 9 15 30.03 1017 10 16.0934 0 0
3:15 am 03:15 Clear 32 -0.2 27 -3 82 82 W 9 15 30.04 1017 10 16.0934 0 0
3:35 am 03:35 Clear 31 -0.5 27 -3 83 83 W 9 15 30.05 1018 10 16.0934 0 0
3:55 am 03:55 Clear 31 -0.4 27 -3 83 83 W 10 17 30.06 1018 10 16.0934 0 0
4:15 am 04:15 Clear 30 -1.1 26 -3.2 86 86 WNW 8 13 30.08 1019 10 16.0934 0 0
4:35 am 04:35 Clear 33 0.3 27 -2.7 81 81 WNW 10 17 30.06 1018 10 16.0934 0 0
4:55 am 04:55 Clear 32 0 27 -3 80 80 WNW 10 17 30.08 1019 10 16.0934 0 0
5:15 am 05:15 Clear 32 0.1 27 -2.7 82 82 WNW 12 19 30.09 1019 10 16.0934 0 0
5:35 am 05:35 Clear 32 0 27 -2.8 82 82 WNW 9 15 30.09 1019 10 16.0934 0 0
5:55 am 05:55 Clear 32 -0.1 27 -3 81 81 WNW 10 17 30.09 1019 10 16.0934 0 0
6:15 am 06:15 Clear 32 0 27 -2.7 82 82 WNW 9 15 30.11 1020 10 16.0934 0 0
6:35 am 06:35 Clear 31 -0.7 26 -3.1 84 84 WNW 10 17 30.12 1020 10 16.0934 0 0
6:55 am 06:55 Clear 31 -0.6 26 -3.1 83 83 W 9 15 30.13 1020 10 16.0934 0 0
7:15 am 07:15 Clear 31 -0.7 26 -3.1 84 84 W 7 11 30.14 1021 10 16.0934 0 0
7:35 am 07:35 Clear 31 -0.8 26 -3.2 84 84 W 8 13 30.15 1021 10 16.0934 0 0
7:55 am 07:55 Clear 32 0 27 -3 80 80 WNW 9 15 30.15 1021 10 16.0934 0 0
8:15 am 08:15 Sunny 31 -0.3 26 -3.1 82 82 WNW 10 17 30.16 1021 10 16.0934 0 0
8:35 am 08:35 Sunny 32 0 27 -3 80 80 NW 13 20 30.17 1022 10 16.0934 0 0
8:55 am 08:55 Sunny 32 0 27 -2.7 82 82 NW 12 19 30.17 1022 10 16.0934 0 0
9:15 am 09:15 Sunny 33 0.5 28 -2.4 81 81 NW 9 15 30.17 1022 10 16.0934 0 0
9:35 am 09:35 Sunny 33 0.6 28 -2.3 81 81 WNW 10 17 30.19 1022 10 16.0934 0 0
9:55 am 09:55 Sunny 35 1.4 29 -1.6 81 81 W 9 15 30.19 1022 10 16.0934 0 0
10:15 am 10:15 Sunny 36 2.1 29 -1.5 77 77 WNW 10 17 30.19 1022 10 16.0934 0 0
10:35 am 10:35 Sunny 37 3 30 -0.9 76 76 W 9 15 30.19 1022 10 16.0934 0 0
10:55 am 10:55 Sunny 39 3.7 31 -0.8 73 73 W 9 15 30.18 1022 10 16.0934 0 0
11:15 am 11:15 Sunny 40 4.6 32 -0.2 71 71 WNW 7 11 30.17 1022 10 16.0934 0 0
11:35 am 11:35 Sunny 41 5.2 32 -0.1 69 69 WNW 10 17 30.17 1022 10 16.0934 0 0
11:55 am 11:55 Sunny 42 5.6 32 -0.1 67 67 WNW 9 15 30.16 1021 10 16.0934 0 0
12:15 pm 12:15 Sunny 44 6.8 32 0 62 62 W 10 17 30.14 1021 10 16.0934 0 0
12:35 pm 12:35 Sunny 47 8.2 32 -0.1 56 56 W 9 15 30.13 1020 10 16.0934 0 0
12:55 pm 12:55 Sunny 48 9.1 32 0.1 54 54 WSW 8 13 30.12 1020 10 16.0934 0 0
1:15 pm 13:15 Sunny 49 9.5 33 0.3 53 53 WSW 9 15 30.11 1019 10 16.0934 0 0
1:35 pm 13:35 Sunny 50 10 32 0 50 50 W 9 15 30.09 1019 10 16.0934 0 0
1:55 pm 13:55 Sunny 51 10.5 32 -0.2 48 48 W 10 17 30.08 1019 10 16.0934 0 0
2:15 pm 14:15 Sunny 52 11.1 30 -1.1 43 43 W 9 15 30.06 1018 10 16.0934 0 0
2:35 pm 14:35 Sunny 52 11.2 30 -1.3 42 42 W 8 13 30.06 1018 10 16.0934 0 0
2:55 pm 14:55 Sunny 53 11.4 28 -2.1 39 39 WNW 10 17 30.07 1018 10 16.0934 0 0
3:15 pm 15:15 Sunny 53 11.6 29 -1.6 40 40 WNW 7 11 30.07 1018 10 16.0934 0 0
3:35 pm 15:35 Sunny 53 11.6 30 -1.1 42 42 W 6 9 30.07 1018 10 16.0934 0 0
3:55 pm 15:55 Sunny 53 11.5 32 -0.1 45 45 WSW 3 6 30.08 1019 10 16.0934 0 0
4:15 pm 16:15 Sunny 51 10.3 32 0 49 49 WSW 7 11 30.1 1019 10 16.0934 0 0
4:35 pm 16:35 Sunny 49 9.5 32 0 52 52 SW 7 11 30.1 1019 10 16.0934 0 0
4:55 pm 16:55 Sunny 49 9.2 30 -1 49 49 SW 6 9 30.11 1020 10 16.0934 0 0
5:15 pm 17:15 Clear 47 8.5 30 -1.1 51 51 SW 3 6 30.11 1019 10 16.0934 0 0
5:35 pm 17:35 Clear 45 7 30 -1.1 57 57 SSW 6 9 30.13 1020 10 16.0934 0 0
5:55 pm 17:55 Clear 42 5.5 30 -1 63 63 S 6 9 30.14 1021 10 16.0934 0 0
6:15 pm 18:15 Clear 42 5.6 29 -1.4 61 61 SSE 5 7 30.15 1021 10 16.0934 0 0
6:35 pm 18:35 Clear 41 5 30 -1 66 66 S 6 9 30.16 1021 10 16.0934 0 0
6:55 pm 18:55 Clear 40 4.6 31 -0.7 69 69 SSE 3 6 30.15 1021 10 16.0934 0 0
7:15 pm 19:15 Clear 42 5.5 31 -0.8 64 64 SSE 5 7 30.14 1021 10 16.0934 0 0
7:35 pm 19:35 Clear 40 4.3 30 -1.1 68 68 SSE 6 9 30.17 1022 10 16.0934 0 0
7:55 pm 19:55 Clear 39 3.7 30 -1.2 71 71 SSE 3 6 30.17 1022 10 16.0934 0 0
8:15 pm 20:15 Clear 36 2.3 30 -1.3 77 77 Calm 30.18 1022 10 16.0934 0 0
8:35 pm 20:35 Clear 33 0.7 29 -1.4 86 86 Calm 30.19 1022 10 16.0934 0 0
8:50 pm 20:50 Clear 34 1 29 -1.5 84 84 SSE 3 6 30.19 1022 10 16.0934 0 0
9:15 pm 21:15 Clear 35 1.8 29 -1.5 79 79 SSE 5 7 30.17 1022 10 16.0934 0 0
9:35 pm 21:35 Clear 35 1.6 29 -1.5 80 80 Calm 30.18 1022 10 16.0934 0 0
9:55 pm 21:55 Clear 33 0.8 29 -1.5 85 85 SSE 5 7 30.18 1022 10 16.0934 0 0
10:15 pm 22:15 Clear 34 1.3 29 -1.6 81 81 SSE 7 11 30.16 1021 10 16.0934 0 0
10:35 pm 22:35 Clear 35 1.9 29 -1.6 78 78 S 5 7 30.16 1021 10 16.0934 0 0
10:55 pm 22:55 Clear 37 2.7 28 -2.2 70 70 SSE 6 9 30.14 1021 10 16.0934 0 0
11:15 pm 23:15 Clear 36 2 28 -2 75 75 SSE 9 15 30.14 1021 10 16.0934 0 0
11:35 pm 23:35 Clear 35 1.9 28 -2 76 76 SSE 7 11 30.14 1021 10 16.0934 0 0
11:55 pm 23:55 Clear 36 2.3 28 -2.2 72 72 SSE 8 13 30.13 1020 10 16.0934 0 0

Powered by AerisWeather